TimeMDT,TemperatureF,Dew PointF,Humidity,Sea Level PressureIn,VisibilityMPH,Wind Direction,Wind SpeedMPH,Gust SpeedMPH,PrecipitationIn,Events,Conditions,WindDirDegrees,DateUTC
12:55 AM,42.1,30.0,62,29.99,10.0,West,4.6,-,N/A,,Clear,270,2013-03-30 06:55:00
1:55 AM,37.0,30.0,76,30.01,10.0,West,3.5,-,N/A,,Scattered Clouds,280,2013-03-30 07:55:00
2:55 AM,37.0,30.0,76,30.03,10.0,West,10.4,-,N/A,,Partly Cloudy,280,2013-03-30 08:55:00
3:55 AM,37.0,32.0,82,30.03,10.0,West,8.1,-,N/A,,Mostly Cloudy,280,2013-03-30 09:55:00
4:55 AM,39.9,34.0,79,30.02,10.0,SSW,4.6,-,N/A,,Overcast,210,2013-03-30 10:55:00
5:55 AM,41.0,34.0,76,30.04,10.0,West,6.9,-,N/A,,Clear,270,2013-03-30 11:55:00
6:55 AM,39.0,33.1,79,30.04,10.0,West,4.6,-,N/A,,Partly Cloudy,270,2013-03-30 12:55:00
7:55 AM,43.0,34.0,71,30.04,10.0,West,8.1,-,N/A,,Clear,280,2013-03-30 13:55:00
8:55 AM,51.1,36.0,56,30.03,10.0,West,10.4,-,N/A,,Clear,280,2013-03-30 14:55:00
9:55 AM,57.9,36.0,44,30.01,10.0,WNW,18.4,-,N/A,,Clear,300,2013-03-30 15:55:00
10:55 AM,61.0,33.1,35,30.01,10.0,NW,17.3,25.3,N/A,,Clear,310,2013-03-30 16:55:00
11:55 AM,63.0,30.0,29,30.01,10.0,North,18.4,21.9,N/A,,Partly Cloudy,350,2013-03-30 17:55:00
12:55 PM,61.0,27.0,27,30.00,10.0,NNW,18.4,24.2,N/A,,Mostly Cloudy,340,2013-03-30 18:55:00
1:55 PM,64.9,24.1,21,29.99,10.0,North,19.6,29.9,N/A,,Mostly Cloudy,350,2013-03-30 19:55:00
2:55 PM,62.1,21.9,21,29.98,10.0,North,16.1,24.2,N/A,,Overcast,10,2013-03-30 20:55:00
3:55 PM,61.0,19.9,21,29.97,10.0,North,15.0,25.3,N/A,,Mostly Cloudy,360,2013-03-30 21:55:00
4:55 PM,60.1,19.0,20,29.97,10.0,NW,15.0,24.2,N/A,,Mostly Cloudy,310,2013-03-30 22:55:00
5:55 PM,59.0,24.1,26,29.98,10.0,WNW,18.4,26.5,N/A,,Mostly Cloudy,300,2013-03-30 23:55:00
6:55 PM,55.9,21.9,27,30.00,10.0,NW,17.3,21.9,N/A,,Mostly Cloudy,310,2013-03-31 00:55:00
7:55 PM,52.0,34.0,50,30.03,10.0,NW,26.5,34.5,N/A,,Overcast,310,2013-03-31 01:55:00
8:55 PM,46.9,34.0,61,30.06,10.0,WNW,12.7,-,N/A,,Mostly Cloudy,300,2013-03-31 02:55:00
9:55 PM,46.9,35.1,63,30.06,10.0,NNW,17.3,-,N/A,,Scattered Clouds,330,2013-03-31 03:55:00
10:55 PM,42.1,30.0,62,30.10,10.0,NNW,10.4,-,N/A,,Clear,340,2013-03-31 04:55:00
11:55 PM,36.0,28.9,76,30.11,10.0,West,6.9,-,N/A,,Clear,270,2013-03-31 05:55:00